Temp
-16 -17 -17 -17 -17 -16 -16 -15 -15 -14 -14 -14 -14 -14 -13 -14 -14 -14 -14 -14 -14 -14 -13 -13 -12 -11 -11 -11 -11 -11 -11 -11 -10 -10 -10 -10 -10 -9 -9 -9 -9 -10 -10 -10
-18 -18 -18 -18 -18 -18 -18 -17 -16 -15 -15 -15 -15 -14 -14 -14 -14 -14 -14 -14 -14 -14 -14 -13 -12 -11 -11 -11 -11 -11 -11 -11 -11 -10 -11 -10 -10 -10 -10 -10 -10 -10 -10 -10
-19 -19 -19 -19 -19 -19 -18 -18 -17 -17 -17 -16 -15 -14 -14 -14 -14 -14 -14 -14 -14 -14 -14 -13 -12 -11 -11 -11 -11 -12 -12 -12 -11 -11 -11 -10 -10 -10 -10 -10 -10 -10 -10 -10
-20 -20 -20 -19 -19 -20 -19 -19 -18 -18 -18 -16 -17 -15 -15 -15 -14 -14 -14 -14 -14 -14 -14 -13 -13 -12 -12 -12 -12 -12 -13 -13 -12 -11 -11 -11 -11 -11 -11 -11 -11 -11 -11 -11
-20 -20 -20 -21 -21 -22 -21 -21 -20 -19 -18 -18 -17 -17 -14 -15 -15 -14 -14 -14 -14 -14 -14 -13 -12 -12 -12 -13 -12 -12 -13 -13 -13 -12 -12 -11 -11 -11 -11 -11 -11 -11 -11 -11
-22 -21 -22 -22 -22 -22 -22 -22 -22 -22 -21 -21 -17 -17 -15 -15 -14 -14 -14 -14 -14 -14 -15 -14 -13 -13 -13 -13 -13 -12 -12 -13 -13 -12 -12 -12 -12 -12 -12 -11 -11 -11 -11 -11
-22 -23 -23 -22 -22 -23 -23 -23 -22 -22 -22 -20 -18 -17 -16 -15 -15 -14 -14 -15 -15 -14 -15 -14 -14 -14 -14 -13 -13 -13 -13 -13 -13 -12 -12 -13 -12 -12 -12 -12 -12 -12 -12 -12
-21 -23 -22 -22 -22 -22 -23 -22 -22 -22 -22 -22 -21 -19 -16 -15 -15 -15 -15 -15 -15 -15 -15 -14 -14 -14 -14 -14 -14 -14 -13 -13 -12 -13 -13 -12 -13 -12 -12 -12 -12 -13 -12 -12
-22 -23 -23 -23 -23 -22 -22 -22 -22 -23 -22 -22 -22 -18 -16 -16 -16 -16 -16 -16 -15 -15 -14 -13 -14 -14 -14 -14 -14 -14 -14 -13 -13 -13 -12 -13 -13 -13 -13 -13 -13 -13 -13 -13
-23 -23 -23 -23 -23 -23 -23 -23 -23 -23 -22 -22 -22 -19 -19 -17 -17 -16 -16 -16 -15 -15 -14 -13 -13 -14 -14 -14 -15 -14 -15 -14 -14 -14 -14 -13 -13 -12 -13 -13 -13 -13 -13 -13
-24 -24 -24 -24 -22 -22 -23 -22 -22 -22 -22 -21 -21 -22 -20 -19 -17 -16 -16 -16 -16 -16 -14 -13 -14 -14 -15 -14 -15 -15 -15 -15 -14 -14 -14 -13 -13 -12 -13 -13 -13 -13 -13 -13
-24 -24 -24 -24 -23 -23 -22 -23 -22 -22 -22 -21 -20 -21 -21 -19 -18 -17 -16 -16 -16 -16 -15 -14 -14 -15 -14 -14 -14 -15 -15 -15 -15 -14 -13 -13 -13 -12 -13 -13 -13 -13 -13 -13
-24 -24 -23 -24 -24 -23 -23 -23 -23 -21 -21 -21 -21 -20 -20 -20 -18 -17 -17 -17 -17 -16 -16 -15 -15 -15 -15 -15 -14 -14 -15 -15 -14 -14 -13 -13 -13 -13 -13 -13 -13 -12 -12 -13
-26 -25 -25 -25 -24 -24 -23 -23 -23 -22 -21 -21 -21 -21 -20 -19 -19 -17 -17 -17 -17 -16 -16 -15 -15 -15 -15 -15 -15 -15 -15 -15 -15 -14 -14 -13 -13 -14 -14 -13 -14 -14 -14 -13
-26 -26 -26 -26 -25 -25 -24 -24 -23 -23 -21 -22 -21 -21 -20 -20 -19 -18 -17 -17 -17 -17 -16 -15 -15 -15 -15 -15 -14 -15 -15 -15 -15 -15 -14 -14 -14 -14 -13 -13 -14 -14 -14 -14
-27 -27 -27 -26 -26 -26 -25 -25 -24 -24 -23 -23 -21 -21 -21 -20 -19 -19 -18 -18 -17 -17 -16 -16 -16 -16 -16 -15 -15 -15 -14 -15 -15 -15 -15 -14 -14 -14 -14 -14 -14 -14 -14 -13
-28 -28 -28 -27 -27 -27 -26 -26 -25 -24 -24 -23 -23 -21 -20 -20 -20 -19 -19 -18 -18 -17 -17 -16 -16 -16 -16 -16 -16 -15 -15 -15 -15 -15 -15 -14 -14 -14 -14 -15 -14 -14 -15 -16
-30 -30 -30 -29 -28 -28 -28 -28 -27 -27 -25 -24 -24 -23 -21 -20 -20 -20 -19 -19 -18 -18 -17 -16 -16 -16 -16 -16 -16 -15 -16 -15 -15 -15 -15 -15 -14 -14 -15 -15 -17 -16 -15 -15
-33 -34 -32 -32 -31 -31 -30 -30 -29 -28 -27 -25 -25 -25 -23 -22 -20 -20 -20 -19 -19 -18 -18 -17 -17 -16 -17 -16 -16 -16 -16 -15 -15 -15 -15 -15 -13 -14 -15 -16 -17 -16 -15 -15
-34 -34 -34 -33 -33 -33 -32 -31 -30 -29 -29 -28 -26 -26 -25 -24 -22 -21 -20 -19 -19 -19 -19 -18 -18 -17 -16 -16 -16 -16 -16 -16 -15 -15 -14 -15 -14 -15 -15 -16 -17 -16 -16 -15
-33 -35 -34 -34 -34 -33 -33 -32 -31 -31 -30 -29 -28 -27 -26 -25 -24 -23 -22 -20 -20 -19 -19 -19 -19 -18 -17 -17 -17 -16 -16 -17 -16 -15 -16 -15 -16 -16 -17 -17 -16 -16 -16 -15
-34 -35 -35 -34 -34 -34 -34 -33 -33 -32 -31 -31 -30 -28 -28 -26 -26 -24 -24 -23 -21 -20 -19 -19 -19 -19 -19 -18 -18 -17 -17 -17 -17 -17 -17 -16 -15 -15 -17 -17 -17 -16 -16 -16
-37 -37 -36 -36 -35 -35 -34 -33 -33 -33 -32 -32 -31 -30 -29 -28 -27 -27 -25 -24 -24 -23 -21 -20 -19 -19 -19 -19 -19 -18 -18 -18 -18 -18 -18 -17 -18 -17 -18 -17 -17 -17 -16 -16
-39 -38 -38 -37 -37 -36 -35 -34 -33 -33 -33 -32 -32 -31 -30 -30 -29 -28 -27 -25 -25 -25 -24 -22 -21 -20 -20 -19 -19 -19 -18 -18 -18 -18 -18 -18 -17 -17 -17 -17 -17 -17 -17 -17
-38 -38 -38 -38 -37 -36 -36 -35 -34 -34 -33 -33 -32 -31 -30 -30 -30 -29 -28 -28 -27 -26 -26 -26 -25 -23 -22 -21 -20 -19 -19 -19 -19 -19 -18 -18 -18 -17 -17 -17 -17 -17 -17 -17
-38 -39 -38 -38 -38 -38 -37 -36 -36 -35 -34 -34 -33 -32 -31 -30 -30 -30 -29 -29 -28 -27 -27 -26 -25 -25 -23 -23 -22 -21 -20 -19 -19 -19 -19 -19 -18 -18 -18 -18 -18 -17 -17 -17
Height
5642 5640 5634 5629 5626 5630 5628 5632 5639 5647 5648 5649 5656 5665 5673 5677 5683 5693 5698 5706 5714 5723 5734 5740 5745 5748 5753 5756 5760 5766 5770 5774 5779 5783 5787 5790 5795 5799 5804 5810 5814 5817 5821 5825
5627 5621 5616 5613 5611 5611 5610 5615 5624 5634 5630 5630 5639 5647 5655 5665 5675 5683 5687 5695 5705 5714 5722 5730 5737 5743 5746 5750 5753 5758 5764 5769 5774 5779 5781 5785 5789 5795 5799 5805 5810 5815 5819 5822
5609 5604 5600 5598 5598 5590 5594 5596 5609 5610 5607 5611 5619 5626 5639 5653 5660 5668 5675 5684 5693 5704 5713 5721 5729 5735 5740 5745 5749 5754 5758 5764 5769 5775 5776 5780 5784 5787 5793 5801 5807 5811 5815 5818
5594 5590 5585 5583 5581 5570 5575 5586 5587 5587 5584 5594 5603 5603 5621 5637 5647 5654 5665 5671 5682 5692 5701 5711 5720 5727 5734 5739 5741 5747 5751 5756 5762 5769 5772 5776 5783 5788 5793 5798 5802 5805 5808 5813
5583 5578 5573 5568 5564 5557 5561 5564 5565 5569 5569 5574 5585 5592 5612 5620 5631 5644 5655 5663 5673 5682 5690 5700 5710 5719 5725 5729 5735 5740 5745 5749 5756 5762 5766 5771 5777 5781 5785 5791 5796 5799 5803 5807
5568 5565 5560 5558 5554 5548 5549 5550 5549 5551 5554 5549 5575 5584 5591 5606 5628 5638 5646 5654 5663 5672 5679 5689 5699 5709 5714 5721 5726 5730 5736 5741 5747 5755 5759 5766 5771 5776 5781 5786 5790 5793 5797 5800
5568 5557 5551 5547 5546 5540 5537 5537 5538 5538 5539 5537 5564 5565 5582 5602 5619 5628 5636 5644 5652 5659 5667 5676 5684 5694 5704 5710 5718 5722 5727 5735 5739 5746 5752 5758 5765 5770 5775 5779 5783 5787 5791 5795
5558 5555 5546 5543 5537 5529 5529 5529 5530 5526 5530 5538 5548 5547 5575 5596 5609 5612 5620 5629 5638 5648 5656 5665 5673 5683 5692 5701 5708 5714 5720 5726 5731 5738 5744 5750 5756 5763 5768 5772 5777 5780 5785 5789
5547 5548 5538 5536 5532 5527 5522 5523 5522 5521 5526 5531 5535 5553 5565 5576 5586 5597 5606 5614 5624 5634 5643 5654 5664 5673 5681 5689 5697 5705 5711 5718 5723 5727 5733 5739 5747 5754 5760 5765 5769 5773 5777 5782
5547 5540 5535 5532 5530 5528 5519 5518 5518 5519 5525 5527 5531 5542 5548 5561 5574 5587 5595 5604 5616 5626 5634 5646 5654 5663 5672 5680 5687 5696 5702 5709 5716 5720 5724 5731 5739 5743 5748 5753 5759 5764 5769 5771
5542 5536 5536 5525 5524 5523 5520 5518 5516 5518 5521 5524 5530 5535 5542 5552 5564 5577 5587 5596 5607 5616 5626 5635 5645 5656 5663 5668 5674 5685 5693 5699 5706 5711 5717 5721 5727 5734 5739 5743 5748 5752 5756 5760
5535 5531 5529 5524 5521 5520 5518 5516 5516 5519 5521 5525 5527 5532 5540 5545 5555 5569 5579 5588 5598 5608 5617 5626 5636 5646 5653 5659 5665 5673 5682 5691 5698 5704 5708 5713 5718 5724 5729 5731 5735 5740 5745 5748
5530 5526 5520 5524 5520 5516 5516 5517 5515 5515 5512 5520 5528 5528 5533 5541 5549 5560 5569 5579 5589 5598 5608 5617 5627 5635 5642 5649 5656 5663 5671 5680 5686 5689 5697 5703 5708 5713 5718 5721 5724 5728 5733 5739
5523 5522 5515 5516 5513 5514 5511 5512 5512 5511 5514 5517 5520 5523 5529 5538 5545 5554 5562 5570 5579 5587 5597 5607 5616 5623 5631 5638 5646 5654 5661 5668 5676 5680 5687 5693 5697 5702 5706 5710 5714 5718 5723 5727
5515 5513 5509 5509 5505 5504 5504 5503 5507 5506 5509 5507 5507 5516 5522 5533 5540 5548 5555 5562 5570 5577 5585 5595 5603 5612 5620 5628 5635 5642 5650 5656 5661 5668 5674 5680 5686 5690 5693 5698 5702 5706 5710 5713
5503 5499 5496 5498 5497 5494 5499 5497 5497 5501 5501 5502 5505 5511 5517 5527 5533 5539 5547 5555 5562 5568 5575 5583 5592 5601 5610 5618 5625 5632 5640 5646 5652 5658 5663 5667 5672 5676 5682 5686 5691 5692 5695 5699
5486 5483 5480 5484 5485 5488 5488 5491 5490 5491 5496 5497 5499 5501 5508 5515 5524 5532 5538 5546 5552 5560 5567 5574 5582 5590 5598 5606 5614 5622 5629 5636 5643 5648 5652 5659 5662 5667 5669 5671 5676 5679 5681 5683
5469 5468 5468 5470 5472 5476 5478 5480 5483 5482 5488 5490 5492 5494 5498 5506 5513 5521 5528 5535 5543 5551 5558 5566 5573 5580 5587 5594 5603 5610 5617 5624 5630 5635 5640 5646 5649 5653 5655 5660 5663 5668 5672 5675
5460 5459 5459 5460 5463 5468 5468 5472 5475 5476 5479 5483 5485 5488 5491 5492 5497 5507 5514 5522 5532 5541 5548 5556 5562 5570 5577 5583 5590 5598 5604 5611 5618 5624 5627 5630 5632 5628 5641 5644 5649 5656 5661 5664
5455 5453 5454 5455 5456 5459 5461 5464 5467 5470 5470 5474 5477 5479 5482 5486 5491 5497 5505 5512 5519 5529 5537 5543 5550 5557 5565 5573 5579 5586 5592 5599 5606 5610 5613 5617 5621 5622 5628 5632 5638 5645 5650 5655
5441 5442 5445 5448 5453 5451 5453 5456 5460 5463 5464 5466 5470 5472 5475 5479 5483 5486 5491 5499 5507 5515 5523 5531 5537 5544 5552 5559 5566 5573 5580 5585 5593 5599 5597 5602 5604 5610 5616 5621 5628 5635 5641 5646
5428 5430 5431 5438 5443 5445 5444 5448 5452 5450 5452 5457 5463 5465 5468 5471 5473 5477 5481 5486 5492 5498 5506 5515 5523 5530 5537 5545 5552 5558 5564 5570 5578 5584 5585 5593 5600 5599 5605 5613 5620 5626 5630 5635
5425 5425 5429 5433 5436 5435 5436 5439 5440 5442 5444 5448 5453 5457 5458 5462 5466 5469 5472 5476 5479 5485 5491 5499 5508 5515 5520 5528 5537 5544 5549 5556 5562 5569 5574 5579 5585 5590 5596 5603 5608 5615 5621 5626
5428 5427 5427 5430 5429 5428 5429 5432 5434 5436 5437 5439 5444 5447 5451 5454 5458 5461 5463 5466 5470 5474 5479 5486 5493 5500 5506 5512 5520 5528 5535 5542 5549 5556 5561 5567 5574 5580 5585 5591 5597 5602 5608 5614
5430 5430 5428 5426 5426 5427 5426 5427 5428 5429 5430 5432 5435 5439 5441 5445 5447 5452 5456 5459 5461 5464 5468 5472 5478 5485 5493 5500 5506 5513 5521 5528 5534 5541 5548 5554 5560 5566 5572 5577 5584 5589 5595 5601
5432 5429 5428 5427 5425 5423 5422 5421 5421 5421 5421 5423 5426 5430 5432 5434 5438 5441 5445 5449 5452 5455 5460 5462 5465 5470 5479 5487 5494 5500 5506 5513 5521 5527 5533 5539 5546 5551 5557 5563 5570 5575 5580 5586
Wind_Speed
55 56 58 60 65 67 69 69 67 62 61 62 57 57 53 54 54 52 50 56 58 55 52 43 42 40 39 36 31 28 24 19 22 22 22 23 22 26 27 26 25 25 23 21
51 53 53 56 58 62 64 68 69 65 67 66 63 61 59 56 53 54 55 52 60 51 50 50 45 37 40 39 35 30 26 20 20 24 24 26 27 28 29 28 25 23 21 21
44 44 45 48 50 56 57 60 61 66 68 69 68 67 62 57 57 56 58 54 57 57 56 55 46 39 39 39 38 32 29 31 20 26 28 30 31 33 32 28 26 24 23 23
39 38 42 44 46 55 58 53 56 61 68 70 65 70 64 59 59 57 59 57 53 60 62 62 54 46 37 39 42 39 34 33 28 24 27 29 29 26 25 27 28 26 26 25
37 37 40 40 40 42 49 49 55 60 65 67 69 69 66 61 60 58 58 59 54 55 61 63 57 50 44 40 44 42 37 34 34 31 25 29 31 31 32 30 28 27 26 25
36 35 33 29 30 35 39 39 43 50 54 64 69 68 71 64 58 58 57 58 55 52 60 60 58 53 51 44 45 45 43 37 38 40 32 29 31 32 32 33 33 31 29 28
30 25 26 26 30 34 28 34 40 45 52 66 66 70 72 63 54 58 56 57 55 54 59 61 61 58 55 50 43 45 47 43 41 41 46 33 33 31 31 31 31 31 28 27
33 16 24 18 27 32 33 28 39 49 49 46 51 65 67 59 54 55 56 58 56 54 60 63 61 55 52 50 49 43 47 47 46 44 42 48 38 32 32 34 33 31 30 30
38 28 24 19 22 21 15 22 30 38 40 32 37 56 63 63 59 57 55 58 60 57 58 59 58 56 50 49 48 48 48 50 51 53 55 45 50 43 39 40 35 32 31 32
34 31 27 19 11 14 12 19 21 30 25 27 28 46 56 60 58 57 53 59 56 58 55 57 57 58 52 49 46 49 49 49 46 39 44 48 55 46 51 54 45 45 34 33
35 33 22 26 14 13 7 19 23 23 28 24 29 40 47 53 55 56 53 57 55 55 56 55 56 56 52 49 48 53 50 50 49 48 47 50 46 43 46 43 47 44 41 43
38 34 22 24 18 13 15 8 21 25 32 38 17 31 39 39 51 53 52 55 53 55 57 53 52 55 47 44 46 52 52 49 46 48 54 53 54 53 51 51 53 56 57 51
41 35 30 18 18 15 12 13 15 34 20 35 41 32 36 30 42 51 51 54 51 55 59 56 52 50 45 40 40 47 47 48 55 54 57 57 49 49 53 54 55 52 50 53
43 37 39 32 27 18 19 14 16 21 27 28 35 44 42 31 33 48 50 55 53 49 56 56 55 54 51 49 45 41 49 52 50 53 53 54 53 51 47 50 50 53 54 55
45 39 38 32 31 26 20 18 10 12 29 27 41 44 46 41 33 38 48 56 56 51 54 60 62 59 55 51 50 47 49 55 59 56 53 52 52 52 54 51 50 50 48 57
45 42 39 32 30 30 21 21 19 13 17 22 36 43 46 45 46 39 39 44 59 57 58 55 58 58 56 52 51 50 53 56 57 56 55 56 55 54 52 50 44 46 53 53
43 39 37 29 28 24 24 21 21 24 20 23 23 41 47 48 47 49 45 47 51 59 60 60 59 58 58 55 51 52 52 55 57 59 60 57 54 58 51 45 45 37 31 35
37 32 28 23 19 19 23 21 18 22 26 21 18 26 39 51 50 51 53 50 50 53 59 61 63 61 61 61 56 56 53 51 52 54 59 63 64 64 58 53 35 31 31 30
26 23 24 22 16 12 17 19 23 21 28 31 24 22 26 37 53 54 57 57 51 49 53 59 63 64 61 61 60 61 57 55 54 52 60 63 62 47 56 41 33 33 33 29
28 26 23 22 20 14 16 19 24 28 29 30 32 27 27 29 43 56 60 61 61 58 53 53 57 64 66 64 62 61 58 56 57 50 60 49 57 46 42 32 30 34 32 31
10 29 30 27 9 18 21 18 18 19 32 28 31 32 29 30 31 43 51 60 65 67 64 59 58 58 64 67 65 66 65 63 60 61 66 49 49 42 36 34 37 36 34 35
20 16 25 32 21 19 25 25 26 29 29 29 30 33 32 32 32 37 39 46 57 63 66 69 62 62 62 61 64 70 70 68 67 66 66 54 36 37 41 42 42 40 36 36
11 10 14 15 20 21 26 27 29 33 31 29 32 28 34 35 36 33 36 41 43 50 65 67 71 65 55 64 62 61 62 65 64 61 57 58 54 53 49 46 47 46 43 38
12 14 2 19 19 25 27 28 34 38 40 34 30 33 36 37 35 39 38 42 38 39 42 53 61 67 69 65 63 65 62 58 59 56 56 57 58 55 55 53 51 52 47 42
17 19 13 8 16 29 32 31 32 37 37 40 40 38 41 37 35 40 44 38 41 38 41 39 43 50 53 63 65 68 69 68 59 57 56 59 61 60 57 55 55 57 55 47
9 10 12 14 13 11 19 32 40 39 40 43 42 43 42 49 41 35 41 45 46 45 42 46 49 49 54 52 49 52 59 66 67 67 62 58 56 58 60 60 58 59 60 55
Wind_Direction
275 274 272 267 266 263 259 255 254 251 251 249 245 239 235 230 231 230 230 226 228 233 232 227 226 232 222 212 209 210 210 216 215 210 211 203 192 187 186 190 192 191 192 198
284 282 277 272 269 267 264 261 254 250 251 250 244 234 235 230 228 227 233 225 228 219 224 228 226 235 220 214 212 205 208 211 217 210 206 204 197 191 193 197 199 203 207 213
292 284 278 274 270 267 261 258 255 253 251 249 247 235 231 228 225 226 228 228 223 222 226 230 226 227 225 219 214 208 211 213 217 221 206 209 202 200 197 199 201 206 215 222
296 289 286 281 275 268 262 259 251 245 248 245 244 241 232 225 223 224 225 230 223 226 228 232 231 229 228 227 217 213 209 211 211 219 215 210 210 206 205 205 204 212 219 221
303 299 291 286 278 273 270 260 254 248 246 244 241 241 226 226 221 219 222 227 228 223 230 235 233 225 226 224 220 215 217 211 212 213 216 215 212 205 203 208 213 218 222 223
319 313 297 291 279 286 271 259 257 252 249 245 236 238 232 227 218 219 220 224 228 227 229 231 233 231 230 226 224 219 215 217 211 209 212 217 218 216 214 214 217 220 221 224
325 316 301 308 292 289 273 250 254 252 242 246 236 234 231 226 215 218 221 221 222 223 226 231 234 232 229 224 222 224 219 214 217 220 212 216 220 220 222 221 223 226 225 229
319 335 283 294 304 302 258 262 252 249 244 250 243 232 227 226 216 215 220 220 217 221 223 228 233 232 231 230 230 226 222 214 217 220 215 211 214 214 221 227 227 230 232 233
322 347 307 314 327 310 271 256 249 252 248 255 247 227 223 225 221 213 215 217 217 215 221 223 230 234 236 239 229 215 219 218 218 224 218 211 214 220 230 231 234 236 240 240
326 329 329 307 307 339 254 252 245 229 239 220 236 217 217 221 221 213 213 216 216 215 220 220 225 231 238 233 231 211 210 213 216 220 234 228 219 214 228 231 229 231 234 243
329 328 346 318 301 307 224 236 215 223 214 209 209 215 214 219 218 212 212 213 212 215 218 220 223 230 234 223 217 205 210 212 216 220 223 233 231 232 233 231 244 238 235 239
327 322 330 338 300 311 333 243 215 218 223 196 205 204 208 217 216 211 209 209 209 213 217 217 219 221 219 217 213 207 210 215 216 222 227 230 234 234 236 234 239 230 234 239
321 319 312 322 323 289 281 281 277 220 183 190 207 215 199 203 218 211 209 206 204 213 211 212 208 212 214 213 212 210 210 214 217 224 228 230 231 236 236 239 244 240 232 241
314 314 309 317 308 308 260 268 267 210 192 203 205 215 212 193 201 213 210 203 201 204 211 210 211 213 214 215 218 219 215 212 217 224 227 229 233 234 235 237 243 247 244 243
308 306 299 304 303 303 291 261 216 205 192 191 197 213 220 205 195 207 216 210 203 203 204 209 209 214 218 219 221 221 216 216 222 225 225 228 231 234 237 238 243 245 245 242
309 302 295 292 292 291 280 271 247 211 202 202 194 209 217 213 207 199 207 208 215 209 206 206 210 217 220 223 225 224 223 220 225 228 232 230 232 237 237 238 236 233 240 244
304 299 294 285 282 275 270 259 251 231 210 218 205 198 213 214 213 210 206 211 213 218 213 210 211 215 221 224 228 228 226 228 231 233 233 233 237 238 238 237 238 244 262 261
304 300 293 291 277 267 253 242 230 247 223 217 225 212 193 208 210 207 211 215 217 218 221 217 215 216 222 225 221 224 227 228 233 236 237 237 236 233 233 234 230 250 259 258
290 290 292 291 279 250 237 227 209 221 232 224 229 227 220 196 205 208 210 216 216 216 221 224 223 220 220 224 224 223 228 230 233 237 242 244 230 227 227 232 227 253 254 257
266 255 269 269 291 256 231 220 205 217 231 227 228 234 227 226 202 210 213 216 220 219 220 223 225 228 227 226 229 231 231 236 237 237 244 245 236 235 233 231 250 257 262 257
270 233 243 253 236 276 241 216 212 230 237 229 227 228 233 225 223 206 203 212 217 223 222 225 226 225 228 231 232 235 237 238 239 237 242 243 245 253 253 250 259 262 262 254
313 212 230 232 225 233 239 237 229 233 241 235 224 228 237 223 225 225 218 209 212 217 222 225 227 231 229 229 231 233 234 237 233 238 244 239 233 231 243 248 253 257 264 255
331 296 215 222 219 239 222 223 224 229 237 237 228 218 236 238 227 235 228 223 219 220 219 222 226 227 229 232 230 230 234 234 237 238 241 245 245 245 248 247 253 255 259 252
49 31 290 224 240 246 235 227 230 233 237 241 240 223 224 234 237 238 235 232 228 228 226 225 227 228 231 233 233 230 232 231 234 235 234 239 241 242 245 247 250 255 257 254
55 29 23 351 264 253 257 247 240 241 240 238 240 232 218 216 225 238 236 237 238 233 228 227 228 228 229 233 234 236 238 238 236 232 235 238 240 243 244 245 250 253 256 252
30 13 356 354 350 322 274 265 258 251 250 246 239 234 233 224 221 229 235 238 237 238 235 233 230 226 228 228 227 226 233 239 243 239 237 237 239 235 239 242 242 247 252 252